Regional Weather Roundup
Issued by NWS

Home | Current Version | Previous Version | Text Only | Print | Product List | Glossary Off
Versions: 1 2 3 4 5 6 7 8 9 10 11 12 13 14 15 16 17 18 19 20 21 22 23 24 25 26 27 28 29 30 31 32 33 34 35 36 37 38 39 40 41 42 43 44 45 46 47 48 49 50

000
ASUS44 KMEG 170710
RWRTN
TENNESSEE HOURLY STATE WEATHER ROUNDUP
NATIONAL WEATHER SERVICE MEMPHIS TN
200 AM CDT THU APR 17 2014

TNZ002-004-019-021-049-052-054-088>092-170800-
WEST TENNESSEE

CITY           SKY/WX    TMP DP  RH WIND       PRES   REMARKS
MEMPHIS INTL   PTCLDY    48  32  53 S7        30.18F
NWS MEMPHIS      N/A     42 N/A N/A MISG        N/A
JACKSON        CLEAR     39  34  82 CALM      30.20R
DYERSBURG      CLEAR     45  28  53 S3        30.21R
UNION CITY     CLEAR     43  32  65 SE6       30.18S
PARIS          CLEAR     42  29  60 SE5       30.20R
LEXINGTON      CLEAR     37  34  87 SE5       30.20S WCI  34
$$

TNZ008-025-027-028-033-062-065-066-170800-
NORTH MIDDLE TENNESSEE

CITY           SKY/WX    TMP DP  RH WIND       PRES   REMARKS
NASHVILLE      MOCLDY    44  35  70 S3        30.25S
DICKSON        MOCLDY    48  28  46 S9        30.21S
PORTLAND       MOCLDY    41  32  70 S6        30.23S
CLARKSVILLE    CLEAR     41  31  67 SE6       30.21S
SMYRNA         MOCLDY    43  34  70 S5        30.27S
MURFREESBORO   MOCLDY    50  33  51 S9        30.26R
COOKEVILLE     CLEAR     45  28  53 S3        30.28S
LIVINGSTON     CLEAR     46  27  48 S6        30.29R
GALLATIN       MOCLDY    40  35  82 CALM      30.26R
CROSSVILLE     CLEAR     44  26  49 CALM      30.30R
$$

TNZ061-075-076-078-094-096-097-170800-
SOUTH MIDDLE TENNESSEE

CITY           SKY/WX    TMP DP  RH WIND       PRES   REMARKS
LEWISBURG      MOCLDY    38  33  82 SE5       30.26R WCI  34
FAYETTEVILLE   MOCLDY    45  31  58 SE10      30.27R
TULLAHOMA      CLEAR     48  27  43 S9        30.29R
WINCHESTER     CLEAR     48  28  46 S6        30.30R
MCMINNVILLE    CLEAR     48  28  46 S5        30.28S
COLUMBIA       CLEAR     50  37  62 S8        30.23R
SHELBYVILLE    MOCLDY    50  32  50 SE8       30.28R
$$

TNZ017-018-042-046-047-170800-
NORTHEAST TENNESSEE

CITY           SKY/WX    TMP DP  RH WIND       PRES   REMARKS
TRI CITIES     CLEAR     45  19  35 E8        30.35R
ELIZABETHTON   SUNNY     43  19  39 CALM      30.37R
$$

TNZ012-013-036-069-073-074-170800-
CENTRAL EAST TENNESSEE

CITY           SKY/WX    TMP DP  RH WIND       PRES   REMARKS
KNOXVILLE      CLEAR     35  32  88 NE6       30.31R WCI  30
OAK RIDGE      CLEAR     40  32  73 CALM      30.33R
$$

TNZ083-085-099-170800-
SOUTHEAST TENNESSEE

CITY           SKY/WX    TMP DP  RH WIND       PRES   REMARKS
CHATTANOOGA    CLEAR     51  27  39 S3        30.32R
$$

SKY/WX REPORTED AS FAIR MEANS FEW OR NO CLOUDS BELOW
12 THOUSAND FEET.




USA.gov is the U.S. government's official web portal to all federal, state and local government web resources and services.